Showing default

KAZSTSAT, 43783

Orbit data source: Space-Track

KAZSTSAT, 43783 is a payload satellite owned by Ghalam LLP (KZ) in SSO that was launched on Mon, 03 Dec 2018 UTC via an FALCON 9 launch vehicle from the Air Force Western Test Range (AFWTR). Payload-class satellites include a variety of spacecraft equipped with specific instruments for various scientific and technological missions. These include communications satellites like Starlink; space stations such as the ISS; scientific satellites like the Hubble; Earth observation satellites from companies like Planet Labs, Umbra, and HawkEye 360; GPS; miniature CubeSats for education and research; and military/defense satellites.

Loading next visibility...
Identifier
43783, 2018-099AB
Orbit
SSO
Country
Flag of KZKZ / KAZ
Related business
Manufacturer
SSTL (Astrium)
Mission
Operational Commercial Science
Bus & Motor
SSTL-X50, AOCS
Mass
110 kg wet, ~100 kg dry
Launch date (UTC)
2018-12-03 (7 years ago)
Launch vehicle
FALCON 9
Launch site
Air Force Western Test Range (AFWTR)
Object type
Payload
Rocket body
Debris
Shape & HBR
Box, 0.3 m
Radar Cross Section
0.375 m², Medium (>0.1 m² and < 1m²)

Expand to show TLE details & history
Last TLE update: 16 hours ago

TLE from 16 hours ago
0 KAZSTSAT
1 43783U 18099AB  25242.67502031  .00001912  00000-0  16277-3 0  9990
2 43783  97.4709 282.2881 0005401 315.9658  44.1135 14.98916546367772
Epoch: 2025-08-30T16:12Z
TLE epoch observation values (Epoch: 2025-08-30T16:12:01.754Z)
Latitude
-0.00002°
Longitude
60.17488°
Altitude
570.608 km
Speed
7.577 km/s
True Right ascension
18h 49m 09s
True Declination
0° 00' 00"
Sunlit
Object was in full shadow at epoch
Visualization orbit readout
Latitude
Unknown
Longitude
Unknown
Altitude
Unknown
Speed
Unknown
Apparent Right ascension
Unknown
Apparent Declination
Unknown
Sunlit
N/A
Visualization observer readout
Local Sidereal Time
23:53:02
Azimuth
Unknown
Elevation
Unknown
Doppler factor
Unknown
Orbital elements
Apogee altitude
570.991 km
Perigee altitude
563.488 km
Semi-major axis
6,945.376 km
Eccentricity
0.00054
Inclination
97.4709°
RAAN
282.2881°
Arg. of periapsis
315.9658°
True anomaly
44.1566°
Mean anomaly
44.1135°
Eccentric anomaly
44.13505°
Mean motion
3.74973 °/min
Orbital period
96.01 mins
BSTAR
0.00016277
Loading maneuver chart data...
Computing Atmospheric mass density...
Loading historical data...
Loading historical data...
Loading historical data...
Loading historical data...
Loading historical data...
Loading historical data...
Loading historical data...

Documentation

Showing up to 5 results
|